SEASAT 1 (10967 NORAD) Tracking and Keplerian Element Data

This shows tracking and keplerian element data for the satellite.

Feedback or suggestion? Click here.




ElementValue
Catalog10967
NameSEASAT 1
Epoch Orbit39278
Epoch Day12.65567732
Epoch Year2024
RAAN276.3224
Inclination107.9942
Eccentricity0.0002963
Argument of Perigee279.381
Mean Anonmoly80.7
Mean Motion14.44694859
Decay Rate6.74E-06
L11 10967U 78064A 24012.65567732 .00000674 00000+0 23338-3 0 9996
L22 10967 107.9942 276.3224 0002963 279.3810 80.7000 14.44694859392781



Live tracking and technical data element details for SEASAT 1 (NORAD 10967). SEASAT 1 can be tracked NOW for your location showing map with azimuth and elevation plus other details from your city location.







IsCatalogInMostPopularTable: catalog: 10967, numindb: 332
Update: records affected: 1



GetName: 10967 SEASAT 1

Hit Count: updated at: Sun, 14 Apr 2024 23:30:40 GMT